Regional Weather Roundup
Issued by NWS

Home | Current Version | Previous Version | Text Only | Print | Product List | Glossary On
Versions: 1 2 3 4 5 6 7 8 9 10 11 12 13 14 15 16 17 18 19 20 21 22 23 24 25 26 27 28 29 30 31 32 33 34 35 36 37 38 39 40 41 42 43 44 45 46 47 48 49 50
000
ASUS44 KJAN 040410
RWRMS

MISSISSIPPI HOURLY WEATHER ROUNDUP
NATIONAL WEATHER SERVICE JACKSON MS
1100 PM CDT THU SEP 03 2015

NOTE: "FAIR: INDICATES FEW OR NO CLOUDS BELOW 12,000 FEET WITH NO
SIGNIFICANT WEATHER AND/OR OBSTRUCTIONS TO VISIBILITY.

MSZ001>002-007>008-010>013-018>021-025>028-034>036-040500-
NORTHWEST MISSISSIPPI

CITY           SKY/WX    TMP DP  RH WIND       PRES   REMARKS
CLARKSDALE       N/A     73  73 100 E3        29.95S
CLEVELAND      FAIR      78  73  82 E5        29.93S
GREENWOOD      CLEAR     80  67  64 E7        29.93S
GREENVILLE     MOCLDY    79  69  71 CALM      29.92S
OLIVE BRANCH   CLEAR     75  75 100 CALM      29.97R
OXFORD         FAIR      72  70  94 CALM      29.98S
TUNICA           N/A    N/A N/A N/A MISG        N/A
$$

MSZ003>006-009-014>017-022>024-029>033-037>039-040500-
NORTHEAST MISSISSIPPI

CITY           SKY/WX    TMP DP  RH WIND       PRES   REMARKS
COLUMBUS AFB   CLEAR     74  71  92 S5        29.94S
CORINTH        FAIR      73  72  94 CALM      29.96S
GOLDN TRIANGLE CLEAR     77  68  73 CALM      29.95S
STARKVILLE     FAIR      72  70  94 SE3       29.96S
TUPELO         CLEAR     75  72  90 CALM      29.95F
$$

MSZ040-058-040500-
CENTRAL MISSISSIPPI

CITY           SKY/WX    TMP DP  RH WIND       PRES   REMARKS
JACKSON INTL   PTCLDY    78  69  73 SE6       29.94S
JACKSON HAWKNS CLEAR     81  69  67 CALM      29.94S
MERIDIAN KEY   CLEAR     77  73  87 S3        29.95S
MERIDIAN NAS   CLEAR     75  71  87 CALM      29.95S
VICKSBURG      CLEAR     76  70  82 CALM      29.93R
$$

MSZ059>079-040500-
SOUTH MISSISSIPPI

CITY           SKY/WX    TMP DP  RH WIND       PRES   REMARKS
BROOKHAVEN       N/A     72  68  88 CALM      29.98R
HATTIESBURG    CLEAR     77  72  84 CALM      29.97R
MCCOMB         CLEAR     75  74  96 S3        29.96R
NATCHEZ        PTCLDY    75  70  83 S6        29.95S
PINE BELT      CLEAR     73  68  83 CALM      29.98S
$$

MSZ080>082-040500-
COASTAL MISSISSIPPI

CITY           SKY/WX    TMP DP  RH WIND       PRES   REMARKS
BILOXI         PTCLDY    81  73  78 S6        29.95S
PASCAGOULA     CLEAR     73  72  96 CALM      29.96S
GULFPORT       PTCLDY    77  73  87 CALM      29.95S
$$


USA.gov is the U.S. government's official web portal to all federal, state and local government web resources and services.